Main page
METAR-TAF:

METAR-TAF

Airports :

Rajmata Vijaya Raje Scindia Airport

Gwalior, India

latitude: 26-17-36N, longitude: 78-13-40E, elevation: 188 m

Current weather observation

The report was made 37 minutes ago, at 03:00 UTC
Wind 2 kt from the East
Temperature 26°C
Humidity 84%
Pressure 1009 hPa
Visibility: 4000 m
Scattered clouds at a height of 2000 ft
Broken clouds at a height of 10000 ft
haze

METAR: VIGR 230300Z 09002KT 4000 HZ SCT020 BKN100 26/23 Q1009

Time: 09:07 (03:37 UTC)


TAF: missing

Weather observations and forecasts of more than 4000 airports (METAR and TAF reports).

The available stations are represented by yellow and red dots on the map.

Hover mouse over dot to see the name of the station.

Then click to see weather observations and forecasts.

To change the map : click on the green buttons with a black cross to zoom in, on the green button with a dash to zoom out, or on the green arrows for adjacent maps.


METAR-TAF: